date time,input_Obs05_water_level,input_ObservationPoint01_water_level,output_gate01_sill_level,head_difference
2014-01-01 00:00:00,0.5,0.5,,
2014-01-01 00:10:00,0.500001072884,0.5,-25.2,-1.07288360596e-006
2014-01-01 00:20:00,0.50000089407,0.799260556698,-25.1,0.299259662628
2014-01-01 00:30:00,0.500000417233,1.2653015852,-25.1,0.765301167965
2014-01-01 00:40:00,0.499999731779,1.33274006844,-25.1,0.832740336657
2014-01-01 00:50:00,0.500000357628,1.37778913975,-25.1,0.87778878212
2014-01-01 01:00:00,0.500000715256,1.58465325832,-25.1,1.08465254307
2014-01-01 01:10:00,0.500001192093,2.02143788338,-25.1,1.52143669128
2014-01-01 01:20:00,0.500000178814,2.09710693359,-25.1,1.59710675478
2014-01-01 01:30:00,0.500000178814,2.19929504395,-25.1,1.69929486513
2014-01-01 01:40:00,0.500174582005,2.50649809837,-25.1,2.00632351637
2014-01-01 01:50:00,0.631169855595,2.83991312981,-25.1,2.20874327421
2014-01-01 02:00:00,3.36893892288,2.88833880424,-25.2,-0.480600118637
2014-01-01 02:10:00,3.82505869865,2.96896934509,-25.2,-0.856089353561
2014-01-01 02:20:00,3.37797021866,3.44109916687,-25.1,0.0631289482117
2014-01-01 02:30:00,3.2529976368,3.60932731628,-25.1,0.356329679489
2014-01-01 02:40:00,3.16556072235,3.67297005653,-25.1,0.507409334183
2014-01-01 02:50:00,2.64014863968,3.74804091454,-25.1,1.10789227486
2014-01-01 03:00:00,2.70170092583,4.22577667236,-25.1,1.52407574654
2014-01-01 03:10:00,2.49918794632,4.28714990616,-25.1,1.78796195984
2014-01-01 03:20:00,2.14595723152,4.42487812042,-25.1,2.2789208889
2014-01-01 03:30:00,2.05800223351,4.7279586792,-25.1,2.66995644569
2014-01-01 03:40:00,1.92358744144,5.00826835632,-25.1,3.08468091488
2014-01-01 03:50:00,1.69924449921,5.07176399231,-25.1,3.3725194931
2014-01-01 04:00:00,1.69924449921,5.07176399231,-25.1,3.3725194931
2014-01-01 04:10:00,1.39411222935,5.61551761627,-25.1,4.22140538692
2014-01-01 04:20:00,1.06431055069,5.67062950134,-25.1,4.60631895065
2014-01-01 04:30:00,0.724924623966,5.82152032852,-25.1,5.09659570456
2014-01-01 04:40:00,0.46289730072,6.17627096176,-25.1,5.71337366104
2014-01-01 04:50:00,0.202276110649,6.33731508255,-25.1,6.1350389719
2014-01-01 05:00:00,-0.0536286197603,6.45382213593,-25.1,6.50745075569
2014-01-01 05:10:00,-0.293038219213,6.68772315979,-25.1,6.980761379
2014-01-01 05:20:00,-0.524903595448,6.98406744003,-25.1,7.50897103548
2014-01-01 05:30:00,-0.773084163666,7.05767869949,-25.1,7.83076286316
2014-01-01 05:40:00,-1.00096690655,7.24823093414,-25.1,8.24919784069
2014-01-01 05:50:00,-1.19689548016,7.59658479691,-25.1,8.79348027706
2014-01-01 06:00:00,-1.38064146042,7.65429162979,-25.1,9.03493309021
2014-01-01 06:10:00,-1.5648547411,7.84463500977,-25.1,9.40948975086
2014-01-01 06:20:00,-1.7509868145,8.19338130951,-25.1,9.94436812401
2014-01-01 06:30:00,-1.93355691433,8.2592124939,-25.1,10.1927694082
2014-01-01 06:40:00,-2.11396861076,8.45055007935,-25.1,10.5645186901
2014-01-01 06:50:00,-2.29174494743,8.78339195251,-25.1,11.0751368999
2014-01-01 07:00:00,-2.46473097801,8.86598587036,-25.1,11.3307168484
2014-01-01 07:10:00,-2.46473097801,8.86598587036,-25.1,11.3307168484
2014-01-01 07:20:00,-2.61650586128,9.37473487854,-25.1,11.9912407398
2014-01-01 07:30:00,-2.73857688904,9.46794891357,-25.1,12.2065258026
2014-01-01 07:40:00,-2.83205986023,9.66337871552,-25.1,12.4954385757
2014-01-01 07:50:00,-2.90060257912,9.9698266983,-25.1,12.8704292774
2014-01-01 08:00:00,-2.93315029144,10.0639257431,-25.1,12.9970760345
2014-01-01 08:10:00,-2.91246247292,10.2715244293,-25.1,13.1839869022
2014-01-01 08:20:00,-2.81725621223,10.5663642883,-25.1,13.3836205006
2014-01-01 08:30:00,-2.64088177681,10.6560354233,-25.1,13.2969172001
2014-01-01 08:40:00,-2.39448428154,10.8834037781,-25.1,13.2778880596
2014-01-01 08:50:00,-2.07843494415,11.1597175598,-25.1,13.238152504
2014-01-01 09:00:00,-1.73294699192,11.248588562,-25.1,12.9815355539
2014-01-01 09:10:00,-1.39897036552,11.5000514984,-25.1,12.8990218639
2014-01-01 09:20:00,-1.06774628162,11.7449035645,-25.1,12.8126498461
2014-01-01 09:30:00,-0.750919044018,11.847401619,-25.1,12.598320663
2014-01-01 09:40:00,-0.45052844286,12.1200895309,-25.1,12.5706179738
2014-01-01 09:50:00,-0.151889041066,12.319314003,-25.1,12.4712030441
2014-01-01 10:00:00,0.156520307064,12.457654953,-25.1,12.3011346459
2014-01-01 10:10:00,0.431601315737,12.737452507,-25.1,12.3058511913
2014-01-01 10:20:00,0.685190439224,12.8865690231,-25.1,12.2013785839
2014-01-01 10:30:00,0.946140944958,13.0802574158,-25.1,12.1341164708
2014-01-01 10:40:00,1.20819151402,13.3414926529,-25.1,12.1333011389
2014-01-01 10:50:00,1.44271802902,13.4594907761,-25.1,12.016772747
2014-01-01 11:00:00,1.67098760605,13.7094020844,-25.1,12.0384144783
2014-01-01 11:10:00,1.88208651543,13.9240446091,-25.1,12.0419580936
2014-01-01 11:20:00,2.07587623596,14.0559263229,-25.1,11.980050087
2014-01-01 11:30:00,2.23338079453,14.3321523666,-25.1,12.0987715721
2014-01-01 11:40:00,2.40022969246,14.4899616241,-25.1,12.0897319317
2014-01-01 11:50:00,2.55458521843,14.682308197,-25.1,12.1277229786
2014-01-01 12:00:00,2.70246982574,14.9318780899,-25.1,12.2294082642
